www.pogodaiklimat.ru

Погода и климат >> Архив погоды >> Россия >> Волгоградская область >> Калач-на-Дону


ПОГОДА в Калаче-на-Дону

  • Прогноз погоды в Калаче-на-Дону
  • Монитор погоды в Калаче-на-Дону
  • Климат города

АРХИВ ПОГОДЫ в Калаче-на-Дону

Время (UTC), дата Ветер
(напр.,м/с)
 
Видим.   Явления Облачность Т
(С)
Тd
(С)
f
(%)
Тe
(С)
Тes
(С)
Комфортность P
(гПа)
Po
(гПа)
Тmin
(С)
Tmax
(С)
R
(мм)
R24
(мм)
S
(см)
09 19.06 В 3 20 км 8/8 1000 м
[Cu med, cong]
+26.1 +8.2 32 +26 +29 жарко 1010.4 1006.0
12 19.06 СВ 1 20 км 9/9 1000 м
[Cu med, cong]
+27.9 +6.5 26 +27 +29 жарко 1009.1 1004.8
15 19.06 ЮЗ 1 20 км 6/0
[Ac As]
+25.1 +9.6 37 +26 +27 жарко 1008.5 1004.1 +28.0
18 19.06 СЗ 1 10 км 3/0
[Ac As]
+19.8 +13.5 67 +23 +23 комфорт 1009.3 1004.9
21 19.06 штиль 0 10 км ясно +15.1 +12.1 82 +15 +15 1009.0 1004.5
00 20.06 ЮВ 1 10 км ясно +12.6 +10.9 89 +13 +13 1008.5 1004.0
03 20.06 В 1 20 км ясно +18.4 +12.6 69 +20 +22 1008.2 1003.8 +12.1
06 20.06 З 2 20 км 1/0
[Ci fib]
+26.2 +9.0 34 +27 +38 жарко 1007.5 1003.2
09 20.06 С 3 20 км 5/5 600 м
[Cb cap]
+27.7 +6.8 27 +27 +35 жарко 1006.8 1002.4
12 20.06 СЗ 3 20 км 8/8 600 м
[Cb cap]
+28.3 +8.2 28 +28 +30 жарко 1005.9 1001.6
15 20.06 С 2 20 км 6/6 600 м
[Cb cap]
+28.1 +10.2 33 +29 +29 жарко 1005.5 1001.2 +29.9
18 20.06 ЮВ 1 10 км 8/8 600 м
[Cb cap]
+23.6 +13.3 52 +26 +26 жарко 1006.8 1002.5
21 20.06 С 1 10 км ясно +17.1 +13.4 79 +18 +18 1006.8 1002.3
00 21.06 ЮВ 1 10 км ясно +14.8 +13.0 89 +15 +15 1006.8 1002.3
03 21.06 штиль 0 20 км 1/1 600 м
[Cb cap]
+19.9 +13.5 67 +22 +24 комфорт 1006.2 1001.7 +13.6
06 21.06 З 3 20 км ясно +27.6 +10.0 33 +28 +37 жарко 1005.4 1001.1
09 21.06 ЮЗ 3 20 км 9/9 1000 м
[Cu med, cong]
+28.8 +12.2 36 +30 +31 жарко 1004.2 999.9
12 21.06 ЮЗ 3
{13}
20 км гроза без осадков {ливн. осадки} 8/8 600 м
[Cb calv]
+26.8 +12.7 42 +28 +30 жарко 1003.3 999.0
15 21.06 ЮЗ 3
{11}
20 км в посл. час ливневой дождь {гроза} 8/3 600 м
[Cb calv Ci ing]
+23.3 +14.9 59 +27 +28 душно 1003.1 998.7 +29.4 3
18 21.06 ЮЗ 4
{12}
10 км {гроза, ливн. осадки} 6/3 600 м
[Cb calv Ac cuf]
+21.8 +14.0 61 +25 +25 комфорт 1004.1 999.7
21 21.06 З 4 10 км 4/4 600 м
[Cb cap]
+22.0 +13.0 57 +25 +25 комфорт 1004.3 999.9
00 22.06 СЗ 1 10 км 8/4 600 м
[Cb cap Ac lent]
+18.8 +13.5 71 +21 +21 комфорт 1004.0 999.6
03 22.06 штиль 0 20 км ясно +19.8 +13.4 67 +21 +24 комфорт 1004.7 1000.3 +15.6 0.5
06 22.06 СЗ 2 20 км 4/3 1000 м
[Cu med, cong Ac trans Ci fib]
+23.6 +15.3 60 +27 +34 жарко 1005.3 1000.9
09 22.06 С 5 20 км 8/6 600 м
[Cb cap Ci fib]
+26.3 +9.7 35 +27 +30 жарко 1005.7 1001.4
12 22.06 С 4
{10}
20 км 8/4 1000 м
[Cu med, cong Ci]
+26.2 +5.9 27 +26 +30 жарко 1006.2 1001.9
15 22.06 С 4
{10}
20 км 8/3 1000 м
[Cu med, cong Ci]
+24.5 +2.8 24 +24 +25 комфорт 1007.8 1003.4 +26.9
18 22.06 СЗ 1 10 км 6/3 1000 м
[Cu hum Ci fib]
+17.5 +8.3 55 +19 +19 1010.2 1005.8
21 22.06 С 1 10 км 5/0
[Ci fib]
+14.7 +8.4 66 +15 +15 1011.3 1006.8
00 23.06 штиль 0 10 км 3/0
[Ci fib]
+11.3 +9.1 86 +11 +11 1011.6 1007.0
03 23.06 Ю 1 20 км 10/0
[Ac und]
+14.7 +11.5 81 +15 +16 1011.6 1007.1 +10.8
06 23.06 Ю 3 20 км 9/0
[Ac trans]
+21.8 +11.5 52 +24 +28 комфорт 1011.6 1007.2
09 23.06 З 4
{10}
20 км 10/0
[Ac und]
+25.8 +6.2 29 +25 +29 комфорт 1010.7 1006.3
12 23.06 СЗ 4
{10}
20 км 9/4 1000 м
[Cu med, cong Ac As]
+26.7 +5.8 26 +26 +28 жарко 1009.6 1005.2
15 23.06 З 6-12
{13}
20 км 8/0
[Ac As]
+24.9 +8.7 36 +25 +26 комфорт 1009.5 1005.1 +27.0
18 23.06 З 3
{13}
10 км 6/0
[Ac trans]
+21.5 +9.2 45 +23 +23 комфорт 1009.7 1005.3
21 23.06 ЮЗ 3 10 км ясно +19.1 +10.9 59 +20 +20 1008.8 1004.4
00 24.06 ЮЗ 3 10 км 10/0
[Ac und]
+18.7 +13.2 70 +20 +20 1007.0 1002.6
03 24.06 ЮЗ 4 20 км 10/0
[Ac As]
+19.9 +15.2 74 +22 +23 комфорт 1005.7 1001.2 +18.7
06 24.06 ЮЗ 3
{13}
10 км слабый дождь 10/0 300 м
[As op]
+18.4 +16.4 88 +19 +21 1004.6 1000.2 +18.4
09 24.06 ЮЗ 5
{12}
20 км {дождь} 10/10 600 м
[Sc]
+20.3 +17.4 83 +23 +23 комфорт 1001.3 997.0
12 24.06 СЗ 6
{14}
20 км в посл. час ливневой дождь 8/8 600 м
[Cb cap]
+21.7 +16.7 73 +26 +27 душно 1002.0 997.7
15 24.06 С 5
{11}
20 км {ливн. осадки, дождь} 6/3 600 м
[Cb cap Ac trans Ci fib]
+20.8 +12.6 59 +23 +24 комфорт 1005.0 1000.6 +23.4 12
18 24.06 С 2
{10}
10 км 6/0
[Ac trans]
+16.6 +10.7 68 +17 +17 1008.5 1004.1
21 24.06 СЗ 1 10 км 3/0
[Ac trans]
+12.0 +11.0 94 +12 +12 1009.9 1005.4
00 25.06 СВ 1 10 км 10/0
[Ac trans]
+12.8 +11.1 89 +13 +13 1010.9 1006.3
03 25.06 штиль 0 20 км 10/0
[Ac trans Ci fib]
+15.0 +12.5 85 +15 +16 1011.9 1007.4 +11.9
06 25.06 СЗ 1 20 км 4/0
[Ci]
+21.2 +9.6 47 +23 +35 комфорт 1012.6 1008.2
09 25.06 ЮЗ 1 20 км 8/8 1000 м
[Cu med, cong Ci fib]
+23.0 +9.5 42 +25 +29 комфорт 1013.0 1008.6
12 25.06 З 4 20 км 6/6 1000 м
[Cu med, cong]
+25.2 +8.1 34 +26 +29 жарко 1012.7 1008.3
15 25.06 З 3 20 км 8/0
[Ac cuf]
+24.3 +6.8 33 +24 +25 комфорт 1013.4 1009.0 +25.7
18 25.06 З 2 10 км 10/10 600 м
[Sc]
+21.8 +10.3 48 +24 +24 комфорт 1014.5 1010.0
21 25.06 З 3 10 км 10/10 600 м
[Sc]
+20.5 +12.0 58 +23 +23 комфорт 1014.8 1010.4
00 26.06 ЮЗ 2 10 км 10/10 600 м
[Sc]
+20.1 +14.2 69 +23 +23 комфорт 1014.6 1010.2
03 26.06 З 3 20 км 4/0
[Ac lent]
+20.2 +14.1 68 +23 +24 комфорт 1015.1 1010.6 +19.5
06 26.06 ЮЗ 1 20 км 8/3 1000 м
[Cu hum Ci]
+24.5 +15.9 59 +28 +36 душно 1015.4 1011.0

 

Местоположение метеостанции Калач-на-Дону (Волгоградская область, Россия): широта 48.68 долгота 43.48 высота над уровнем моря 38 м.

В архиве по умолчанию представлена погода в Калаче-на-Дону за последнюю неделю. Архивные данные за месяц целиком и за предыдущие месяцы, начиная с января 2011 года, Вы можете получить, выбрав интересующий диапазон дат из раскрывающегося списка и нажав кнопку "Ввод!".

Внимание! Время в таблицах - всемирное. Для получения местного времени необходимо прибавить поправку, которая в Калаче-на-Дону равна 3 ч.

Смотрите также архив погоды в соседних городах и на ближайших метеорологических станциях:

Погода в Нижнем Чире (Волгоградская область, Россия) (47 км)
Погода в Волгограде (Волгоградская область, Россия) (66 км)
Погода в Волгограде город (Волгоградская область, Россия) (71 км)
Погода в Иловле (Волгоградская область, Россия) (79 км)
Погода в Серафимовиче (Волгоградская область, Россия) (113 км)
Погода в Котельниково (Волгоградская область, Россия) (119 км)
Погода в Малых Дербетах (Калмыкия, Россия) (123 км)
Погода в Морозовске (Ростовская область, Россия) (124 км)
Погода в Фролове (Волгоградская область, Россия) (125 км)
Погода в Боковской (Ростовская область, Россия) (135 км)

Пояснения к столбцам:

Ветер - указаны скорость ветра в м/с - средняя за 10 мин, порывы в срок и между сроками (в фигурных скобках) и направление, откуда дует ветер: С - северный, СВ - северо-восточный, В - восточный, ЮВ - юго-восточный, Ю - южный, ЮЗ - юго-западный, З - западный, СЗ - северо-западный.
Видимость - горизонтальная дальность видимости в метрах или километрах. При видимости от 1 до 10 км при отсутствии осадков обычно наблюдается дымка, при ухудшении видимости до 1 км и менее - туман. В сухую погоду видимость может ухудшаться дымом, пылью или мглою.
Явления - указаны атмосферные явления, наблюдавшиеся в срок или в последний час перед сроком; фигурными скобками обозначены явления, наблюдавшиеся между сроками (за 1-3 часа до срока); квадратными скобками обозначены град или гололедные отложения с указанием их диаметра в мм.
Облачность - указаны через наклонную черту общая и нижняя облачность в баллах и высота нижней границы облаков в метрах; квадратными скобками обозначены формы облаков: Ci - перистые, Cs - перисто-слоистые, Cc - перисто-кучевые, Ac - высококучевые, As - высокослоистые, Sc - слоисто-кучевые, Ns - слоисто-дождевые, Cu - кучевые, Cb - кучево-дождевые. Подробнее классификацию облаков см. в Атласе облаков (PDF).
T - Температура воздуха - температура, измеренная на высоте 2 м над землей.
Td - Температура точки росы - температура, при понижении до которой содержащийся в воздухе водяной пар достигнет насыщения.
f - Относительная влажность воздуха - влажноcть воздуха, измеренная на высоте 2 м над землей.
Te - Эффективная температура - температура, которую ощущает одетый по сезону человек в тени. Характеристика душности погоды. При расчете учитывается влияние влажности воздуха и скорости ветра на теплоощущения человека.
Tes - Эффективная температура на солнце - температура, которую ощущает человек, с поправкой на солнечный нагрев. Характеристика знойности погоды. Зависит от высоты солнца над горизонтом, облачности и скорости ветра. Ночью, в пасмурную погоду, а также при ветре 12 м/с и более поправка равна нулю.
P - Атмосферное давление - приведенное к уровню моря атмосферное давление.
Po - Атмосферное давление - измеренное на уровне метеостанции атмосферное давление.
Tmin - Минимальная температура - минимум температуры воздуха на высоте 2 м над землей.
Tmax - Максимальная температура - максимум температуры воздуха на высоте 2 м над землей.
R - Количество осадков - Количество выпавших осадков за период времени, мм. При наведении курсора мыши на число - период времени, за который выпало указанное количество осадков.
R24 - Количество осадков - Количество выпавших осадков за 24 часа, мм.
S - Снежный покров - Высота снежного покрова, см. При наведении курсора мыши на число - состояние снежного покрова и степень покрытия местности в баллах.